Location: Isola Pescaroli
(45.0500°N, 10.1667°E)
Time: 03:59:17
(UTC+00:00)

SL-4 R/B - Visible Passes

Search period start: 14 June 2021 00:00
Search period end: 24 June 2021 00:00
Orbit: 427 x 663 km, 51.6° (Epoch: 13 June)

Date Brightness Start Highest point End Pass type
(mag) Time Alt. Az. Time Alt. Az. Time Alt. Az.
14 Jun 1.6 00:27:43 70° SW 00:28:06 84° SSE 00:31:42 10° ENE visible
14 Jun 3.3 02:04:34 10° WNW 02:07:54 32° NNW 02:11:05 10° NE visible
15 Jun 1.7 00:20:26 56° W 00:21:08 78° NNW 00:24:45 10° ENE visible
15 Jun 3.5 01:57:45 10° WNW 02:01:02 29° N 02:04:09 10° NE visible
15 Jun 4.2 22:37:33 13° E 22:37:33 13° E 22:38:01 10° E visible
16 Jun 2.1 00:13:04 40° W 00:14:11 63° NNW 00:17:46 10° ENE visible
16 Jun 3.6 01:50:56 10° WNW 01:54:10 28° N 01:57:15 10° NE visible
16 Jun 3.8 22:30:03 18° E 22:30:03 18° E 22:31:13 10° ENE visible
17 Jun 2.5 00:05:32 28° W 00:07:15 52° NNW 00:10:48 10° NE visible
17 Jun 3.7 01:44:05 10° WNW 01:47:18 28° N 01:50:22 10° ENE visible
17 Jun 3.1 22:22:18 28° E 22:22:18 28° E 22:24:22 10° ENE visible
17 Jun 2.8 23:57:46 18° W 00:00:20 44° NNW 00:03:50 10° NE visible
18 Jun 3.8 01:37:13 10° WNW 01:40:26 28° N 01:43:31 10° ENE visible
18 Jun 1.9 22:14:04 55° ESE 22:14:04 55° ESE 22:17:28 10° ENE visible
18 Jun 3.1 23:49:44 10° W 23:53:25 39° NNW 23:56:53 10° NE visible
19 Jun 3.8 01:30:19 10° WNW 01:33:35 28° N 01:36:40 10° ENE visible
19 Jun 3.9 20:29:04 12° ESE 20:29:04 12° ESE 20:29:49 10° E visible
19 Jun 1.7 22:04:16 23° SW 22:06:43 75° SSE 22:10:32 10° ENE visible
19 Jun 3.4 23:42:53 10° W 23:46:31 35° NNW 23:49:55 10° NE visible
20 Jun 3.7 01:23:24 10° NW 01:26:43 30° N 01:29:51 10° ENE visible
20 Jun 3.3 20:17:28 10° S 20:20:30 19° SE 20:23:22 10° E visible
20 Jun 1.8 21:55:36 10° WSW 21:59:44 88° NNW 22:03:34 10° ENE visible
20 Jun 3.6 23:36:04 10° WNW 23:39:37 32° NNW 23:42:59 10° NE visible
21 Jun 3.6 01:16:28 10° NW 01:19:50 32° N 01:23:02 10° ENE visible
21 Jun 3.0 20:09:54 10° SSW 20:13:25 25° SE 20:16:43 10° E visible
21 Jun 2.1 21:48:37 10° WSW 21:52:46 72° NNW 21:56:36 10° ENE visible
21 Jun 3.7 23:29:13 10° WNW 23:32:45 31° N 23:36:03 10° ENE visible
22 Jun 3.4 01:09:30 10° NW 01:12:57 35° NNE 01:16:13 10° E visible
22 Jun 1.5 02:49:08 10° WNW 02:52:41 65° SW 02:56:05 10° SE visible
22 Jun 2.7 20:02:30 10° SSW 20:06:20 32° SE 20:09:57 10° ENE visible
22 Jun 2.5 21:41:41 10° WSW 21:45:48 60° NNW 21:49:37 10° ENE visible
22 Jun 3.8 23:22:22 10° WNW 23:25:52 30° N 23:29:10 10° ENE visible
23 Jun 3.1 01:02:31 10° NW 01:06:04 39° NNE 01:09:24 10° E visible
23 Jun 1.8 02:42:12 10° WNW 02:45:40 49° SW 02:48:59 10° SE visible
23 Jun 2.4 19:55:12 10° SSW 19:59:17 41° SE 20:03:06 10° ENE visible
23 Jun 2.8 21:34:47 10° W 21:38:52 51° NNW 21:42:39 10° NE visible
23 Jun 3.8 23:15:30 10° WNW 23:19:00 29° N 23:22:17 10° ENE visible
